Weather History for Burlington, IA

Change the Weather History Date:

Wednesday, September 18, 2013

  Actual Average Record
Temperature  
Mean Temperature 76 °F 67 °F  
Max Temperature 88 °F 78 °F 94 °F (1910)
Min Temperature 63 °F 55 °F 37 °F (1929)
Degree Days  
Heating Degree Days 0 2  
Month to date heating degree days 16 19  
Since 1 July heating degree days 27 23  
Cooling Degree Days 11 4  
Month to date cooling degree days 148 108  
Year to date cooling degree days 1049 1151  
Growing Degree Days 25 (Base 50)    
Moisture  
Dew Point 65 °F    
Average Humidity 73    
Maximum Humidity 93    
Minimum Humidity 53    
Precipitation  
Precipitation 0.00 in 0.11 in 1.43 in (2001)
Month to date precipitation 0.43 2.20  
Year to date precipitation 27.49 29.45  
Sea Level Pressure  
Sea Level Pressure 29.95 in    
Wind  
Wind Speed 11 mph (South)    
Max Wind Speed 18 mph    
Max Gust Speed 23 mph    
Visibility 10 miles    
Events      
T = Trace of Precipitation, MM = Missing Value Source: NWS Daily Summary

Daily Weather History Graph

Daily Weather History Graph

Search for Another Location

Airport:

Trip Planner

Search our weather history database for the weather conditions in past years. The results will help you decide how hot, cold, wet, or windy it might be!

Date:

Astronomy

Sep. 18, 2013 Rise Set
Actual Time 6:48 AM CDT 7:07 PM CDT
Civil Twilight 6:20 AM CDT 7:35 PM CDT
Nautical Twilight 5:48 AM CDT 8:07 PM CDT
Astronomical Twilight 5:15 AM CDT 8:40 PM CDT
Moon 6:31 PM CDT (9/18) 5:51 AM CDT (9/18)
Length of Visible Light 13h 14m
Length of Day
12h 19m
Waxing Gibbous, 99% of the Moon is Illuminated
Sep 18
Waxing Gibbous
Sep 19
Full
Sep 26
Last Quarter
Oct 4
New
Oct 11
First Quarter

Hourly Weather History & Observations

Time (CDT) Temp. Heat Index Dew Point Humidity Pressure Visibility Wind Dir Wind Speed Gust Speed Precip Events Conditions
12:53 AM 64.0 °F - 61.0 °F 90% 30.06 in 9.0 mi South 8.1 mph - N/A   Overcast
1:21 AM 62.6 °F - 60.8 °F 94% 30.06 in 8.0 mi South 6.9 mph - N/A   Scattered Clouds
1:53 AM 63.0 °F - 60.1 °F 90% 30.06 in 8.0 mi South 5.8 mph - N/A   Clear
2:53 AM 64.0 °F - 60.1 °F 87% 30.04 in 10.0 mi South 6.9 mph - N/A   Scattered Clouds
3:53 AM 64.9 °F - 59.0 °F 81% 30.02 in 10.0 mi South 9.2 mph - N/A   Partly Cloudy
4:53 AM 64.0 °F - 59.0 °F 84% 30.01 in 10.0 mi South 6.9 mph - N/A   Clear
5:53 AM 64.9 °F - 60.1 °F 84% 30.00 in 10.0 mi South 10.4 mph - N/A   Overcast
6:53 AM 64.9 °F - 62.1 °F 90% 29.99 in 7.0 mi South 10.4 mph - N/A   Partly Cloudy
7:53 AM 66.0 °F - 62.1 °F 87% 30.00 in 8.0 mi South 10.4 mph - N/A   Clear
8:53 AM 69.1 °F - 64.0 °F 84% 29.99 in 8.0 mi South 12.7 mph 19.6 mph N/A   Partly Cloudy
9:53 AM 73.9 °F - 66.0 °F 76% 29.99 in 9.0 mi South 16.1 mph 21.9 mph N/A   Partly Cloudy
10:53 AM 77.0 °F - 66.0 °F 69% 29.98 in - North - - N/A   Unknown
11:53 AM 81.0 °F 83.3 °F 66.9 °F 62% 29.96 in 10.0 mi South 12.7 mph - N/A   Partly Cloudy
12:53 PM 84.0 °F 87.0 °F 68.0 °F 58% 29.94 in 10.0 mi South 13.8 mph - N/A   Scattered Clouds
1:53 PM 87.1 °F 90.6 °F 68.0 °F 53% 29.92 in 10.0 mi South 10.4 mph 20.7 mph N/A   Clear
2:53 PM 87.1 °F 90.6 °F 68.0 °F 53% 29.89 in 10.0 mi South 11.5 mph 18.4 mph N/A   Clear
3:53 PM 88.0 °F 92.1 °F 69.1 °F 53% 29.87 in 10.0 mi SSW 13.8 mph - N/A   Clear
4:53 PM 88.0 °F 92.1 °F 69.1 °F 53% 29.86 in 10.0 mi South 12.7 mph - N/A   Clear
5:53 PM 86.0 °F 89.4 °F 68.0 °F 55% 29.86 in 10.0 mi South 13.8 mph - N/A   Clear
6:53 PM 84.0 °F 87.8 °F 69.1 °F 61% 29.86 in 10.0 mi South 8.1 mph - N/A   Clear
7:53 PM 81.0 °F 84.1 °F 69.1 °F 67% 29.86 in 10.0 mi South 10.4 mph - N/A   Clear
8:53 PM 79.0 °F - 70.0 °F 74% 29.88 in 10.0 mi South 10.4 mph - N/A   Clear
9:53 PM 78.1 °F - 69.1 °F 74% 29.89 in 10.0 mi South 11.5 mph - N/A   Clear
10:53 PM 75.9 °F - 68.0 °F 76% 29.89 in 10.0 mi South 10.4 mph - N/A   Clear
11:53 PM 73.9 °F - 68.0 °F 82% 29.90 in 10.0 mi South 6.9 mph - N/A   Clear